Cody, WY

7:48 PM MDT on April 27, 2017 (GMT -0600)
Yellowstone Regional

Weather History for KCOD - July, 2013

Change the Weather History Date:

Sunday, July 7, 2013

  Actual Average Record
Temperature  
Mean Temperature 72 °F -  
Max Temperature 87 °F 84 °F 96 °F (1935)
Min Temperature 57 °F 53 °F 38 °F (1952)
Cooling Degree Days 7    
Growing Degree Days 22 (Base 50)    
Moisture  
Dew Point 48 °F    
Average Humidity 48    
Maximum Humidity 72    
Minimum Humidity 22    
Precipitation  
Precipitation 0.01 in - - ()
Sea Level Pressure  
Sea Level Pressure 30.02 in    
Wind  
Wind Speed 10 mph (South)    
Max Wind Speed 28 mph    
Max Gust Speed 37 mph    
Visibility 10 miles    
Events Thunderstorm    
Averages and records for this station are not official NWS values.
T = Trace of Precipitation, MM = Missing Value Source: NWS Daily Summary

Daily Weather History Graph

Daily Weather History Graph

Search for Another Location

Airport or City:

Trip Planner

Search our weather history database for the weather conditions in past years. The results will help you decide how hot, cold, wet, or windy it might be!

Date:

Astronomy

Jul. 07, 2013 Rise Set
Actual Time 5:39 AM MDT 9:02 PM MDT
Civil Twilight 5:02 AM MDT 9:38 PM MDT
Nautical Twilight 4:15 AM MDT 10:25 PM MDT
Astronomical Twilight 3:15 AM MDT 11:25 PM MDT
Moon 5:20 AM MDT (7/7) 8:25 PM MDT (7/7)
Length of Visible Light 16h 35m
Length of Day
15h 23m
Waning Crescent, 0% of the Moon is Illuminated
Jul 7
Waning Crescent
Jul 8
New
Jul 15
First Quarter
Jul 22
Full
Jul 29
Last Quarter

Hourly Weather History & Observations

Time (MDT) Temp. Dew Point Humidity Pressure Visibility Wind Dir Wind Speed Gust Speed Precip Events Conditions
12:15 AM 62.6 °F 46.4 °F 55% 30.03 in 10.0 mi WSW 15.0 mph 20.7 mph N/A   Clear
12:35 AM 62.6 °F 44.6 °F 52% 30.02 in 10.0 mi WSW 9.2 mph 20.7 mph N/A   Clear
12:55 AM 64.4 °F 44.6 °F 49% 30.03 in 10.0 mi WSW 9.2 mph 20.7 mph N/A   Clear
1:15 AM 62.6 °F 44.6 °F 52% 30.03 in 10.0 mi WSW 15.0 mph 21.9 mph N/A   Clear
1:35 AM 62.6 °F 44.6 °F 52% 30.03 in 10.0 mi SW 11.5 mph - 0.01 in   Clear
1:55 AM 62.6 °F 44.6 °F 52% 30.04 in 10.0 mi SW 9.2 mph - 0.01 in   Clear
2:15 AM 62.6 °F 44.6 °F 52% 30.03 in 10.0 mi WSW 6.9 mph - N/A   Clear
2:35 AM 60.8 °F 46.4 °F 59% 30.01 in 10.0 mi WSW 10.4 mph - N/A   Clear
2:55 AM 60.8 °F 44.6 °F 55% 30.01 in 10.0 mi SW 18.4 mph - N/A   Clear
3:15 AM 60.8 °F 44.6 °F 55% 30.00 in 10.0 mi SSW 17.3 mph 24.2 mph N/A   Clear
3:35 AM 60.8 °F 46.4 °F 59% 30.00 in 10.0 mi SSW 12.7 mph - N/A   Clear
3:55 AM 60.8 °F 46.4 °F 59% 30.00 in 10.0 mi SW 9.2 mph - N/A   Clear
4:15 AM 60.8 °F 46.4 °F 59% 30.00 in 10.0 mi SSW 13.8 mph - N/A   Clear
4:55 AM 59.0 °F 46.4 °F 63% 30.00 in 10.0 mi SSW 18.4 mph - N/A   Clear
5:15 AM 59.0 °F 46.4 °F 63% 30.01 in 10.0 mi SSW 11.5 mph - N/A   Clear
5:35 AM 59.0 °F 46.4 °F 63% 30.02 in 10.0 mi SW 8.1 mph 17.3 mph N/A   Clear
5:55 AM 57.2 °F 46.4 °F 67% 30.02 in 10.0 mi SW 8.1 mph - N/A   Clear
6:15 AM 57.2 °F 46.4 °F 67% 30.02 in 10.0 mi Calm Calm - N/A   Clear
6:35 AM 59.0 °F 48.2 °F 67% 30.03 in 10.0 mi Calm Calm - N/A   Clear
6:55 AM 59.0 °F 48.2 °F 67% 30.03 in 10.0 mi South 5.8 mph - N/A   Clear
7:15 AM 60.8 °F 48.2 °F 63% 30.04 in 10.0 mi South 8.1 mph - N/A   Clear
7:35 AM 62.6 °F 48.2 °F 59% 30.04 in 10.0 mi SW 3.5 mph - N/A   Clear
7:55 AM 64.4 °F 48.2 °F 56% 30.05 in 10.0 mi NW 3.5 mph - N/A   Clear
8:15 AM 64.4 °F 48.2 °F 56% 30.05 in 10.0 mi Calm Calm - N/A   Clear
8:35 AM 66.2 °F 48.2 °F 52% 30.05 in 10.0 mi Calm Calm - N/A   Clear
8:55 AM 66.2 °F 48.2 °F 52% 30.05 in 10.0 mi Calm Calm - N/A   Clear
9:15 AM 69.8 °F 48.2 °F 46% 30.05 in 10.0 mi Calm Calm - N/A   Clear
9:35 AM 69.8 °F 48.2 °F 46% 30.05 in 10.0 mi Calm Calm - N/A   Clear
9:55 AM 71.6 °F 48.2 °F 43% 30.04 in 10.0 mi South 3.5 mph - N/A   Clear
10:15 AM 71.6 °F 46.4 °F 41% 30.04 in 10.0 mi East 3.5 mph - N/A   Clear
10:35 AM 73.4 °F 48.2 °F 41% 30.04 in 10.0 mi SSE 5.8 mph - N/A   Clear
10:55 AM 75.2 °F 48.2 °F 38% 30.03 in 10.0 mi ESE 9.2 mph - N/A   Clear
11:15 AM 77.0 °F 48.2 °F 36% 30.03 in 10.0 mi ESE 8.1 mph - N/A   Clear
11:35 AM 78.8 °F 50.0 °F 36% 30.03 in 10.0 mi SE 6.9 mph - N/A   Clear
11:55 AM 78.8 °F 50.0 °F 36% 30.02 in 9.0 mi East 10.4 mph - N/A   Clear
12:15 PM 80.6 °F 48.2 °F 32% 30.02 in 10.0 mi SE 3.5 mph - N/A   Clear
12:35 PM 82.4 °F 48.2 °F 30% 30.01 in 10.0 mi SE 10.4 mph - N/A   Clear
12:55 PM 82.4 °F 48.2 °F 30% 30.01 in 10.0 mi SE 10.4 mph - N/A   Clear
1:15 PM 82.4 °F 48.2 °F 30% 30.00 in 10.0 mi SE 11.5 mph 16.1 mph N/A   Clear
1:35 PM 84.2 °F 48.2 °F 29% 29.99 in 10.0 mi SE 9.2 mph 17.3 mph N/A   Clear
1:55 PM 84.2 °F 50.0 °F 30% 29.98 in 10.0 mi ESE 12.7 mph 18.4 mph N/A   Clear
2:15 PM 84.2 °F 48.2 °F 29% 29.97 in 10.0 mi East 10.4 mph - N/A   Clear
2:35 PM 84.2 °F 48.2 °F 29% 29.96 in 10.0 mi NE 8.1 mph 17.3 mph N/A Thunderstorm Mostly Cloudy
2:55 PM 86.0 °F 46.4 °F 25% 29.95 in 10.0 mi East 5.8 mph - N/A   Scattered Clouds
3:15 PM 87.8 °F 46.4 °F 24% 29.94 in 10.0 mi ENE 12.7 mph 17.3 mph N/A   Partly Cloudy
3:35 PM 87.8 °F 46.4 °F 24% 29.94 in 10.0 mi ESE 5.8 mph - N/A   Partly Cloudy
3:55 PM 87.8 °F 44.6 °F 22% 29.93 in 10.0 mi ENE 10.4 mph - N/A   Clear
4:15 PM 87.8 °F 44.6 °F 22% 29.93 in 10.0 mi East 3.5 mph 20.7 mph N/A   Mostly Cloudy
4:35 PM 82.4 °F 48.2 °F 30% 29.95 in 10.0 mi North 27.6 mph 36.8 mph N/A   Overcast
4:55 PM 75.2 °F 51.8 °F 44% 29.98 in 10.0 mi North 19.6 mph 35.7 mph N/A   Scattered Clouds
5:15 PM 75.2 °F 48.2 °F 38% 29.99 in 10.0 mi NNE 17.3 mph 26.5 mph N/A   Scattered Clouds
5:35 PM 75.2 °F 46.4 °F 36% 29.99 in 10.0 mi North 18.4 mph 28.8 mph N/A   Mostly Cloudy
5:55 PM 73.4 °F 44.6 °F 36% 30.00 in 10.0 mi North 19.6 mph 25.3 mph N/A   Partly Cloudy
6:15 PM 73.4 °F 44.6 °F 36% 30.00 in 10.0 mi North 15.0 mph 20.7 mph N/A   Scattered Clouds
6:35 PM 73.4 °F 44.6 °F 36% 30.01 in 10.0 mi North 10.4 mph - N/A   Mostly Cloudy
6:55 PM 73.4 °F 44.6 °F 36% 30.03 in 10.0 mi North 16.1 mph 24.2 mph N/A   Scattered Clouds
7:15 PM 71.6 °F 44.6 °F 38% 30.04 in 10.0 mi North 16.1 mph 24.2 mph N/A   Partly Cloudy
7:35 PM 68.0 °F 48.2 °F 49% 30.07 in 10.0 mi NNW 11.5 mph 19.6 mph N/A   Mostly Cloudy
7:55 PM 66.2 °F 50.0 °F 56% 30.07 in 10.0 mi North 8.1 mph - N/A   Overcast
8:15 PM 64.4 °F 51.8 °F 64% 30.08 in 10.0 mi Calm Calm - N/A   Overcast
8:35 PM 66.2 °F 51.8 °F 60% 30.07 in 10.0 mi NE 5.8 mph - N/A   Mostly Cloudy
8:55 PM 64.4 °F 51.8 °F 64% 30.06 in 10.0 mi NNE 4.6 mph - N/A   Partly Cloudy
9:15 PM 64.4 °F 51.8 °F 64% 30.06 in 10.0 mi Calm Calm - N/A   Clear
9:35 PM 62.6 °F 53.6 °F 72% 30.07 in 10.0 mi South 5.8 mph - N/A   Clear
9:55 PM 62.6 °F 53.6 °F 72% 30.08 in 10.0 mi South 5.8 mph - N/A   Clear
10:15 PM 62.6 °F 51.8 °F 68% 30.08 in 10.0 mi South 4.6 mph - N/A   Clear
10:35 PM 62.6 °F 51.8 °F 68% 30.08 in 10.0 mi SW 4.6 mph - N/A   Clear
10:55 PM 64.4 °F 48.2 °F 56% 30.08 in 10.0 mi SW 6.9 mph - N/A   Clear
11:15 PM 66.2 °F 48.2 °F 52% 30.08 in 10.0 mi WSW 5.8 mph - N/A   Clear
11:35 PM 64.4 °F 48.2 °F 56% 30.07 in 10.0 mi WSW 6.9 mph - N/A   Clear
11:55 PM 64.4 °F 51.8 °F 64% 30.07 in 10.0 mi NNE 5.8 mph - N/A   Clear